Location: Karlsruhe
(49.0131°N, 8.3874°E)
Time: 15:52:29
(UTC+02:00)

ISS - Pass Details

Date: 22 May 2021
Orbit: 419 x 422 km, 51.6° (Epoch: 25 June)

Event Time Altitude Azimuth Distance (km) Brightness Sun altitude
Rises 01:13:05 0° 290° (WNW) 2,375 0.4 -20.6°
Reaches altitude 10° 01:15:13 10° 286° (WNW) 1,509 -0.7 -20.6°
Enters shadow 01:16:59 27° 273° (W) 846 -2.2 -20.6°
